User: anonymous   Login
Location: Unspecified
(0.0000°N, 0.0000°E)
Time: 02:11:22
(UTC+00:00)
Language:

LEMUR 2 BALTO - Orbit

View from above orbital plane
View from above orbital plane
View from above satellite
View from above satellite

Ground track
Ground track

The orbit is defined by the following mean orbital elements,

1 63395U          26145.43850275 +.00000000 +00000-0 +43042-3 0 00007
2 63395  97.6886  39.3227 0005087 114.0626 246.1130 14.99804364    03
Epoch (UTC): 25 May 2026 10:31:26
Eccentricity: 0.0005087
inclination: 97.6886°
perigee height: 564 km
apogee height: 571 km
right ascension of ascending node: 39.3227°
argument of perigee: 114.0626°
revolutions per day: 14.99804364
mean anomaly at epoch: 246.1130°

The dashed part of the orbit path shows where the satellite is in the earth's shadow,  

DLR